TEVEL2-3

Last updated on Mon Nov 03 2025 00:03:22 GMT+0000 (Coordinated Universal Time)

1 63218U 25052J 25306.43473152 .00017137 00000+0 69498-3 0 9996 2 63218 97.4103 198.4291 0002528 160.0431 200.0906 15.24692277 35439
UTC large
Height (km)
Speed (km/s)
/
Latitude / Longitude
Inclination (degrees)
Orbital Period (minutes)
Azimuth
Elevation
Range (km)
Doppler Factor

Next 0 passes for location: London (51.5072 / 0.1276)

Sorry there are no passes over London.